EW2575 Weather Reports


Display with metric or nautical units.
time (UTC)temp
F
wind
direction
speed
MPH
gust
MPH
rain 1hr
in
rain 24hr
in
rain mn
in
humidity
%
barometer
mb
20260510173538 63 301 7.0 12.0 0.00 0.00 0.00 72 1016.6
20260510173039 63 281 5.0 13.0 0.00 0.00 0.00 69 1016.6
20260510172538 63 292 7.0 15.0 0.00 0.00 0.00 73 1016.6
20260510172038 63 274 5.0 12.0 0.00 0.00 0.00 69 1016.7
20260510171539 63 260 8.0 13.0 0.00 0.00 0.00 71 1016.7
20260510171042 63 263 8.0 13.0 0.00 0.00 0.00 73 1016.7
20260510170537 63 254 9.0 14.0 0.00 0.00 0.00 73 1016.8
20260510170041 62 271 8.0 14.0 0.00 0.00 0.00 74 1016.7
20260510165537 63 264 9.0 13.0 0.00 0.00 0.00 73 1016.7
20260510165038 63 244 7.0 15.0 0.00 0.00 0.00 73 1016.7
20260510164539 63 271 9.0 15.0 0.00 0.00 0.00 72 1016.9
20260510164035 63 294 4.0 13.0 0.00 0.00 0.00 72 1016.8
20260510163535 63 275 7.0 15.0 0.00 0.00 0.00 72 1016.9
20260510114022 61 261 5.0 10.0 0.00 0.00 0.00 75 1019.0
20260510113521 61 240 5.0 11.0 0.00 0.00 0.00 76 1019.1
20260510113020 61 273 7.0 11.0 0.00 0.00 0.00 78 1019.0
20260510112521 61 262 6.0 12.0 0.00 0.00 0.00 80 1019.0
20260510112020 60 234 5.0 12.0 0.00 0.00 0.00 80 1018.9
20260510111521 61 279 5.0 10.0 0.00 0.00 0.00 79 1019.0
20260510111019 61 261 5.0 9.0 0.00 0.00 0.00 78 1019.0
20260510110519 60 258 2.0 9.0 0.00 0.00 0.00 76 1019.0
20260510110020 60 261 4.0 9.0 0.00 0.00 0.00 76 1018.9
20260510105517 60 298 3.0 9.0 0.00 0.00 0.00 77 1018.9
20260510105017 60 267 5.0 9.0 0.00 0.00 0.00 78 1019.0
20260510104517 60 271 4.0 8.0 0.00 0.00 0.00 76 1018.9
20260510104015 61 251 2.0 7.0 0.00 0.00 0.00 76 1018.9
20260510103515 60 319 0.0 4.0 0.00 0.00 0.00 73 1018.9
20260510103013 60 274 0.0 4.0 0.00 0.00 0.00 74 1018.9
20260510102512 59 274 1.0 6.0 0.00 0.00 0.00 73 1018.9
20260510102016 59 298 2.0 6.0 0.00 0.00 0.00 71 1018.6
20260510101512 59 285 1.0 7.0 0.00 0.00 0.00 71 1018.7
20260510101012 59 311 3.0 7.0 0.00 0.00 0.00 71 1018.7
20260510100511 59 276 2.0 6.0 0.00 0.00 0.00 73 1018.6
20260510100010 59 236 2.0 6.0 0.00 0.00 0.00 73 1018.6
20260510095511 59 306 2.0 6.0 0.00 0.00 0.00 73 1018.6
20260510095009 59 300 1.0 3.0 0.00 0.00 0.00 75 1018.5
20260510094513 59 300 0.0 4.0 0.00 0.00 0.00 74 1018.3
20260510094007 59 300 1.0 3.0 0.00 0.00 0.00 74 1018.5
20260510093506 59 140 0.0 3.0 0.00 0.00 0.00 74 1018.3
20260510093006 59 140 0.0 3.0 0.00 0.00 0.00 75 1018.2
20260510092505 58 174 0.0 3.0 0.00 0.00 0.00 75 1018.5
20260510092004 58 184 0.0 3.0 0.00 0.00 0.00 76 1018.4
20260510091503 58 89 1.0 4.0 0.00 0.00 0.00 75 1018.4
20260510091002 58 122 1.0 4.0 0.00 0.00 0.00 75 1018.4
20260510090502 58 111 1.0 2.0 0.00 0.00 0.00 75 1018.6
20260510090100 58 242 0.0 2.0 0.00 0.00 0.00 76 1018.6
20260510085601 58 242 0.0 2.0 0.00 0.00 0.00 76 1018.5
20260510085057 57 242 0.0 4.0 0.00 0.00 0.00 76 1018.5
20260510084600 57 241 1.0 4.0 0.00 0.00 0.00 75 1018.7
20260510084055 57 135 0.0 4.0 0.00 0.00 0.00 76 1018.5
20260510083555 57 132 2.0 4.0 0.00 0.00 0.00 76 1018.3
20260510083054 57 126 2.0 5.0 0.00 0.00 0.00 75 1018.6
20260510082552 57 117 3.0 5.0 0.00 0.00 0.00 75 1018.3
20260510082054 56 126 3.0 7.0 0.00 0.00 0.00 76 1018.2
20260510081619 56 147 3.0 7.0 0.00 0.00 0.00 77 1018.3
20260510081048 56 119 4.0 10.0 0.00 0.00 0.00 77 1018.3
20260510080548 55 132 5.0 10.0 0.00 0.00 0.00 77 1018.3
20260510080052 55 108 6.0 9.0 0.00 0.00 0.00 77 1018.3
20260510075547 55 126 6.0 9.0 0.00 0.00 0.00 78 1018.3
20260510075046 54 134 5.0 10.0 0.00 0.00 0.00 79 1018.2
20260510074545 54 135 7.0 10.0 0.00 0.00 0.00 78 1018.2
20260510074048 54 122 4.0 9.0 0.00 0.00 0.00 78 1018.2
20260510073542 54 121 6.0 9.0 0.00 0.00 0.00 79 1018.3
20260510073054 54 81 4.0 11.0 0.00 0.00 0.00 79 1018.4
20260510072545 54 112 8.0 12.0 0.00 0.00 0.00 79 1018.1
20260510072044 54 94 8.0 12.0 0.00 0.00 0.00 78 1017.9
20260510071541 54 128 8.0 13.0 0.00 0.00 0.00 78 1018.0
20260510071040 53 105 8.0 13.0 0.00 0.00 0.00 78 1017.8
20260510070539 53 88 9.0 12.0 0.00 0.00 0.00 78 1017.8
20260510070040 53 86 9.0 14.0 0.00 0.00 0.00 79 1017.8
20260510065538 53 132 10.0 14.0 0.00 0.00 0.00 79 1017.8
20260510065038 53 109 10.0 13.0 0.00 0.00 0.00 79 1018.0
20260510064549 53 115 9.0 12.0 0.00 0.00 0.00 79 1018.0
20260510064135 52 109 9.0 12.0 0.00 0.00 0.00 79 1018.1
20260510063535 52 105 8.0 12.0 0.00 0.00 0.00 80 1018.2
20260510063041 52 130 8.0 13.0 0.00 0.00 0.00 79 1018.2
20260510062533 52 86 9.0 13.0 0.00 0.00 0.00 79 1018.1
20260510062033 53 110 8.0 13.0 0.00 0.00 0.00 79 1018.1
20260510061536 52 102 8.0 11.0 0.00 0.00 0.00 79 1018.3
20260510061033 52 108 8.0 12.0 0.00 0.00 0.00 79 1018.2
20260510060533 52 119 9.0 12.0 0.00 0.00 0.00 80 1018.2
20260510060042 52 101 8.0 12.0 0.00 0.00 0.00 81 1018.3
20260510055533 52 118 8.0 12.0 0.00 0.00 0.00 81 1018.2
20260510055035 52 124 8.0 11.0 0.00 0.00 0.00 81 1018.1
20260510054533 52 101 8.0 12.0 0.00 0.00 0.00 82 1017.9
20260510054031 52 96 8.0 12.0 0.00 0.00 0.00 83 1017.8
20260510053530 52 112 8.0 12.0 0.00 0.00 0.00 83 1017.7
20260510053041 52 127 8.0 12.0 0.00 0.00 0.00 83 1017.8
20260510052531 52 120 9.0 12.0 0.00 0.00 0.00 84 1017.9
20260510052032 52 136 8.0 11.0 0.00 0.00 0.00 83 1018.0
20260510051531 52 122 9.0 11.0 0.00 0.00 0.00 84 1017.8
20260510051031 52 112 8.0 11.0 0.00 0.00 0.00 83 1017.9
20260510050529 52 105 8.0 11.0 0.00 0.00 0.00 83 1017.9
20260510050035 52 115 9.0 11.0 0.00 0.00 0.00 83 1017.8
20260510045531 52 129 8.0 11.0 0.00 0.00 0.00 83 1017.7
20260510045030 52 119 8.0 10.0 0.00 0.00 0.00 83 1017.5
20260510044544 52 109 7.0 10.0 0.00 0.00 0.00 83 1017.7
20260510044028 52 118 7.0 10.0 0.00 0.00 0.00 83 1017.6
20260510043529 52 112 8.0 11.0 0.00 0.00 0.00 84 1017.5
20260510043031 52 113 8.0 11.0 0.00 0.00 0.00 84 1017.4
20260510042528 52 114 8.0 11.0 0.00 0.00 0.00 84 1017.5
20260510042028 52 109 9.0 11.0 0.00 0.00 0.00 84 1017.5
20260510041527 52 113 9.0 11.0 0.00 0.00 0.00 84 1017.5
20260510041027 52 109 6.0 9.0 0.00 0.00 0.00 84 1017.4
20260510040530 52 107 6.0 8.0 0.00 0.00 0.00 84 1017.5
20260510040038 52 117 6.0 8.0 0.00 0.00 0.00 84 1017.3
20260510035526 52 110 6.0 8.0 0.00 0.00 0.00 84 1017.2
20260510035027 52 108 6.0 9.0 0.00 0.00 0.00 84 1017.1
20260510034526 52 85 7.0 9.0 0.00 0.00 0.00 84 1017.0
20260510034025 52 106 8.0 9.0 0.00 0.00 0.00 84 1017.1
20260510033525 52 114 6.0 9.0 0.00 0.00 0.00 84 1017.0
20260510033039 52 110 7.0 10.0 0.00 0.00 0.00 84 1017.1
20260510032525 52 113 8.0 10.0 0.00 0.00 0.00 84 1017.2
20260510032028 52 107 8.0 12.0 0.00 0.00 0.00 85 1017.2
20260510031524 52 111 9.0 13.0 0.00 0.00 0.00 85 1017.2
20260510031023 52 107 9.0 14.0 0.00 0.00 0.00 85 1017.0
20260510030529 52 119 11.0 14.0 0.00 0.00 0.00 84 1017.2
20260510030022 52 121 8.0 11.0 0.00 0.00 0.00 84 1017.3
20260510025521 52 116 8.0 11.0 0.00 0.00 0.00 84 1017.2
20260510025027 52 112 8.0 11.0 0.00 0.00 0.00 83 1017.2
20260510024520 52 112 7.0 11.0 0.00 0.00 0.00 84 1017.3
20260510024019 52 117 8.0 12.0 0.00 0.00 0.00 84 1017.3
20260510023519 52 125 8.0 12.0 0.00 0.00 0.00 84 1017.3
20260510023018 52 117 10.0 12.0 0.00 0.00 0.00 84 1017.3
20260510022518 52 119 9.0 12.0 0.00 0.00 0.00 84 1017.4
20260510022018 52 113 10.0 12.0 0.00 0.00 0.00 84 1017.4
20260510021517 52 113 9.0 11.0 0.00 0.00 0.00 83 1017.5
20260510021015 53 115 9.0 11.0 0.00 0.00 0.00 83 1017.3
20260510020515 53 117 7.0 11.0 0.00 0.00 0.00 83 1017.6
20260510020020 53 118 9.0 11.0 0.00 0.00 0.00 83 1017.6
20260510015615 53 111 8.0 11.0 0.00 0.00 0.00 83 1017.8
20260510015019 53 110 6.0 10.0 0.00 0.00 0.00 84 1018.0
20260510014513 52 119 7.0 11.0 0.00 0.00 0.00 84 1017.9
20260510014012 52 103 8.0 11.0 0.00 0.00 0.00 84 1017.9
20260510013512 53 103 9.0 11.0 0.00 0.00 0.00 84 1018.0
20260510013011 53 98 8.0 11.0 0.00 0.00 0.00 83 1017.9
20260510012510 53 115 8.0 11.0 0.00 0.00 0.00 83 1017.9
20260510012008 53 121 8.0 10.0 0.00 0.00 0.00 83 1017.9
20260510011511 54 113 7.0 11.0 0.00 0.00 0.00 83 1018.0
20260510011006 54 129 8.0 10.0 0.00 0.00 0.00 82 1018.1
20260510010505 54 109 7.0 10.0 0.00 0.00 0.00 83 1018.2
20260510010005 54 101 7.0 11.0 0.00 0.00 0.00 83 1018.3
20260510005505 54 108 7.0 12.0 0.00 0.00 0.00 82 1018.4
20260510005004 54 119 8.0 11.0 0.00 0.00 0.00 83 1018.3
20260510004504 54 116 7.0 10.0 0.00 0.00 0.00 83 1018.3
20260510004003 54 124 7.0 10.0 0.00 0.00 0.00 83 1018.3
20260510003502 54 119 8.0 10.0 0.00 0.00 0.00 82 1018.3
20260510003003 55 115 7.0 10.0 0.00 0.00 0.00 82 1018.3
20260510002502 55 138 6.0 10.0 0.00 0.00 0.00 83 1018.4
20260510002001 54 100 6.0 10.0 0.00 0.00 0.00 84 1018.4
20260510001501 54 123 7.0 11.0 0.00 0.00 0.00 84 1018.5
20260510001100 54 114 8.0 11.0 0.00 0.00 0.00 84 1018.6
20260510000600 54 103 7.0 11.0 0.00 0.00 0.00 85 1018.5
20260510000103 54 117 7.0 12.0 0.00 0.00 0.00 85 1018.5
20260509235559 54 107 8.0 12.0 0.00 0.00 0.00 85 1018.4
20260509235057 55 130 8.0 11.0 0.00 0.00 0.00 84 1018.4
20260509234600 55 124 6.0 9.0 0.00 0.00 0.00 85 1018.5
20260509234056 55 116 6.0 9.0 0.00 0.00 0.00 85 1018.5
20260509233556 55 111 7.0 10.0 0.00 0.00 0.00 85 1018.5
20260509233103 55 108 6.0 10.0 0.00 0.00 0.00 85 1018.6
20260509232557 55 117 7.0 10.0 0.00 0.00 0.00 85 1018.6
20260509232055 55 103 7.0 10.0 0.00 0.00 0.00 85 1018.4
20260509231554 55 122 7.0 10.0 0.00 0.00 0.00 84 1018.4
20260509231051 56 124 7.0 9.0 0.00 0.00 0.00 84 1018.4
20260509230554 56 123 6.0 9.0 0.00 0.00 0.00 85 1018.4
20260509230050 56 124 5.0 9.0 0.00 0.00 0.00 85 1018.5
20260509225552 56 113 6.0 10.0 0.00 0.00 0.00 85 1018.6
20260509225048 56 99 6.0 10.0 0.00 0.00 0.00 85 1018.7
20260509224547 55 109 7.0 10.0 0.00 0.00 0.00 86 1018.6
20260509224051 55 115 7.0 12.0 0.00 0.00 0.00 86 1018.6
20260509223546 56 117 8.0 12.0 0.00 0.00 0.00 86 1018.5
20260509223050 56 121 7.0 10.0 0.00 0.00 0.00 86 1018.3
20260509222545 56 104 7.0 10.0 0.00 0.00 0.00 86 1018.3
20260509222045 56 126 6.0 10.0 0.00 0.00 0.00 86 1018.3
20260509221545 56 113 5.0 8.0 0.00 0.00 0.00 86 1018.3
20260509221045 57 129 4.0 7.0 0.00 0.00 0.00 86 1018.3
20260509220548 57 137 3.0 5.0 0.00 0.00 0.00 86 1018.3
20260509220044 57 122 3.0 4.0 0.00 0.00 0.00 86 1018.2
20260509215546 57 119 2.0 4.0 0.00 0.00 0.00 86 1018.2
20260509215044 57 121 2.0 4.0 0.00 0.00 0.00 86 1018.2
20260509214545 57 113 2.0 6.0 0.00 0.00 0.00 86 1018.1
20260509214043 57 114 3.0 4.0 0.00 0.00 0.00 86 1018.0
20260509213545 57 118 2.0 4.0 0.00 0.00 0.00 86 1018.0
20260509213043 57 108 2.0 5.0 0.00 0.00 0.00 86 1018.0
20260509212543 57 145 2.0 5.0 0.00 0.00 0.00 86 1018.1
20260509212043 57 196 2.0 5.0 0.00 0.00 0.00 86 1018.2
20260509211542 57 209 2.0 6.0 0.00 0.00 0.00 85 1018.2
20260509211042 58 205 3.0 6.0 0.00 0.00 0.00 85 1018.2
20260509210546 58 213 4.0 8.0 0.00 0.00 0.00 85 1018.1
20260509210041 58 227 5.0 8.0 0.00 0.00 0.00 84 1018.1
20260509205540 58 219 4.0 9.0 0.00 0.00 0.00 84 1018.0
20260509205040 58 217 4.0 10.0 0.00 0.00 0.00 83 1017.8
20260509204538 58 235 5.0 9.0 0.00 0.00 0.00 82 1017.8
20260509204039 58 192 5.0 10.0 0.00 0.00 0.00 81 1017.7
20260509203543 59 217 6.0 11.0 0.00 0.00 0.00 81 1017.7
20260509203039 58 205 5.0 9.0 0.00 0.00 0.00 80 1017.8
20260509202538 58 194 5.0 10.0 0.00 0.00 0.00 81 1017.7
20260509202041 59 214 4.0 11.0 0.00 0.00 0.00 81 1017.7
20260509201547 59 220 6.0 12.0 0.00 0.00 0.00 80 1017.7
20260509201038 59 204 6.0 11.0 0.00 0.00 0.00 79 1017.6
20260509200537 59 209 6.0 11.0 0.00 0.00 0.00 78 1017.5
20260509200045 59 224 4.0 9.0 0.00 0.00 0.00 78 1017.5
20260509195537 59 228 7.0 10.0 0.00 0.00 0.00 78 1017.4
20260509195036 59 257 4.0 9.0 0.00 0.00 0.00 78 1017.4
20260509194536 60 240 6.0 11.0 0.00 0.00 0.00 77 1017.4
20260509194038 60 258 6.0 11.0 0.00 0.00 0.00 76 1017.3
20260509193536 60 266 6.0 11.0 0.00 0.00 0.00 76 1017.3
20260509193039 61 250 5.0 10.0 0.00 0.00 0.00 75 1017.3
20260509192535 61 279 6.0 10.0 0.00 0.00 0.00 76 1017.3
20260509192035 61 275 7.0 10.0 0.00 0.00 0.00 75 1017.3
20260509191535 61 246 5.0 10.0 0.00 0.00 0.00 75 1017.3
20260509191035 61 265 7.0 10.0 0.00 0.00 0.00 76 1017.2
20260509190537 61 227 7.0 13.0 0.00 0.00 0.00 76 1017.2
20260509190036 61 313 8.0 13.0 0.00 0.00 0.00 76 1017.2
20260509185534 61 320 9.0 14.0 0.00 0.00 0.00 77 1017.2
20260509185034 60 263 8.0 15.0 0.00 0.00 0.00 79 1017.2
20260509184541 60 219 9.0 16.0 0.00 0.00 0.00 80 1017.2
20260509184034 60 232 9.0 17.0 0.00 0.00 0.00 80 1017.1
20260509183533 60 248 11.0 17.0 0.00 0.00 0.00 80 1017.1
20260509183036 60 234 10.0 15.0 0.00 0.00 0.00 79 1017.1
20260509182534 60 257 10.0 15.0 0.00 0.00 0.00 79 1017.1
20260509182032 61 234 10.0 15.0 0.00 0.00 0.00 78 1017.0
20260509181535 61 246 9.0 15.0 0.00 0.00 0.00 78 1017.0
20260509181033 62 243 8.0 14.0 0.00 0.00 0.00 77 1017.0
20260509180531 62 248 9.0 15.0 0.00 0.00 0.00 74 1017.0
20260509180032 62 259 10.0 14.0 0.00 0.00 0.00 72 1016.9
20260509175531 62 268 7.0 15.0 0.00 0.00 0.00 69 1017.0
20260509175034 62 271 8.0 15.0 0.00 0.00 0.00 71 1017.1
20260509174531 62 255 9.0 15.0 0.00 0.00 0.00 69 1017.0